HELLAS-SAT 2

Last updated on Sun Dec 07 2025 00:02:45 GMT+0000 (Coordinated Universal Time)

1 27811U 03020A 25340.06800543 -.00000079 00000+0 00000+0 0 9999 2 27811 6.8738 70.1950 0011287 185.7014 193.6892 1.00271000 40913
UTC large
Height (km)
Speed (km/s)
/
Latitude / Longitude
Inclination (degrees)
Orbital Period (minutes)
Azimuth
Elevation
Range (km)
Doppler Factor

Next 0 passes for location: London (51.5072 / 0.1276)

Sorry there are no passes over London.